Regional Weather Roundup
Issued by NWS

Home | Current Version | Previous Version | Graphics & Text | Print | Product List | Glossary On
Versions: 1 2 3 4 5 6 7 8 9 10 11 12 13 14 15 16 17 18 19 20 21 22 23 24 25 26 27 28 29 30 31 32 33 34 35 36 37 38 39 40 41 42 43 44 45 46 47 48 49 50
000
ASUS43 KOAX 182310
RWRNE

WEATHER ROUNDUP FOR NEBRASKA
NATIONAL WEATHER SERVICE OMAHA NE
600 PM CDT MON SEP 18 2017

NOTES: SATELLITE DATA IS BEING USED TO AUGMENT CLOUD COVER ABOVE
       12000 FEET.
       "FAIR" INDICATES FEW OR NO CLOUDS BELOW 12,000 FEET WITH NO
       SIGNIFICANT WEATHER AND/OR OBSTRUCTIONS TO VISIBILITY.


NEZ001>004-019>022-054>056-190000-
NEBRASKA PANHANDLE

CITY           SKY/WX    TMP DP  RH WIND       PRES   REMARKS
SCOTTSBLUFF    SUNNY     81  40  23 E13       29.84F
ALLIANCE       CLOUDY    80  36  20 SW12      29.84F
CHADRON        SUNNY     84  29  13 S5        29.77F
GORDON         FAIR      82  32  16 CALM      29.82S
KIMBALL        SUNNY     80  35  19 SW7       29.91F
SIDNEY         SUNNY     82  30  15 SW7       29.90F
$$

NEZ057>060-069>072-079>082-190000-
SOUTHWEST NEBRASKA

CITY           SKY/WX    TMP DP  RH WIND       PRES   REMARKS
NORTH PLATTE   SUNNY     81  58  45 SE12      29.85F
LEXINGTON      SUNNY     78  60  53 SE6       29.87F
MCCOOK         SUNNY     83  52  34 E8        29.86F
OGALLALA       SUNNY     84  34  16 W5        29.86S
$$

NEZ005>010-023>029-035>040-094-190000-
NORTH CENTRAL NEBRASKA

CITY           SKY/WX    TMP DP  RH WIND       PRES   REMARKS
VALENTINE      SUNNY     83  40  21 W9        29.81S
AINSWORTH      SUNNY     77  60  54 S13       29.83R
O`NEILL        SUNNY     74  63  66 S12       29.84S
THEDFORD       SUNNY     83  40  21 W8        29.85S
$$

NEZ041-046>049-061>064-073>077-083>087-190000-
SOUTH CENTRAL NEBRASKA

CITY           SKY/WX    TMP DP  RH WIND       PRES   REMARKS
GRAND ISLAND   MOSUNNY   78  65  63 S8        29.87F
AURORA         SUNNY     76  67  75 SE6       29.87S
HASTINGS       SUNNY     79  60  52 S7        29.88S
HEBRON         SUNNY     80  65  60 SE7       29.88S
HOLDREGE       SUNNY     78  57  48 SE6       29.87S
YORK           MOSUNNY   75  66  73 S3        29.87F
$$

NEZ011>018-030>034-042>045-190000-
NORTHEAST NEBRASKA

CITY           SKY/WX    TMP DP  RH WIND       PRES   REMARKS
NORFOLK        MOSUNNY   72  66  81 S10       29.86F
ALBION         CLOUDY    74  66  75 S7        29.87S
BLAIR          CLOUDY    72  67  84 S5        29.88F
COLUMBUS       MOSUNNY   73  66  78 S6        29.88S
FREMONT        CLOUDY    72  66  80 S6        29.88S
TEKAMAH        CLOUDY    71  66  84 S6        29.88S
WAYNE          PTSUNNY   72  69  91 S9        29.86S
$$

NEZ050>053-065>068-078-088>093-190000-
SOUTHEAST NEBRASKA

CITY           SKY/WX    TMP DP  RH WIND       PRES   REMARKS
LINCOLN        SUNNY     75  66  73 S9        29.88F
OMAHA EPPLEY   CLOUDY    73  65  75 S9        29.88F
BEATRICE       PTSUNNY   78  66  66 S8        29.88S
FALLS CITY     SUNNY     77  65  66 S7        29.88F
NEBRASKA CITY  MOSUNNY   76  70  81 S9        29.89S
PLATTSMOUTH    PTSUNNY   75  69  82 SE5       29.89S
$$

NEZ044-045-051>053-067-190000-
OMAHA AREA

CITY           SKY/WX    TMP DP  RH WIND       PRES   REMARKS
OMAHA EPPLEY   CLOUDY    73  65  75 S9        29.88F
BLAIR          CLOUDY    72  67  84 S5        29.88F
FREMONT        CLOUDY    72  66  80 S6        29.88S
MILLARD        CLOUDY    75  68  79 CALM      29.87F
OFFUTT AFB     CLOUDY    74  67  77 SE8       29.88S
PLATTSMOUTH    PTSUNNY   75  69  82 SE5       29.89S
WAHOO          FAIR      74  66  76 S3        29.87F
$$




USA.gov is the U.S. government's official web portal to all federal, state and local government web resources and services.